| time (UTC) | temp F | wind direction | speed MPH | gust MPH | rain 1hr in | rain 24hr in | rain mn in | humidity % | barometer mb |
| 20260906002623 | 65 | 0.0 | 0.0 | 0.00 | 0.00 | 0.00 | 65 | 1014.9 | |
| 20260906001646 | 66 | 0.0 | 0.0 | 0.00 | 0.00 | 0.00 | 65 | 1014.8 | |
| 20260906000518 | 66 | 0.0 | 0.0 | 0.00 | 0.00 | 0.00 | 63 | 1014.6 | |
| 20260905235506 | 66 | 0.0 | 0.0 | 0.00 | 0.00 | 0.00 | 63 | 1014.7 | |
| 20260905234503 | 66 | 0.0 | 0.0 | 0.00 | 0.00 | 0.00 | 63 | 1014.7 | |
| 20260905233417 | 66 | 0.0 | 0.0 | 0.00 | 0.00 | 0.00 | 61 | 1014.7 | |
| 20260905232443 | 66 | 0.0 | 0.0 | 0.00 | 0.00 | 0.00 | 62 | 1014.7 | |
| 20260905231444 | 66 | 0.0 | 0.0 | 0.00 | 0.00 | 0.00 | 58 | 1014.8 | |
| 20260905230508 | 66 | 0.0 | 0.0 | 0.00 | 0.00 | 0.00 | 60 | 1014.8 | |
| 20260905225419 | 66 | 0.0 | 0.0 | 0.00 | 0.00 | 0.00 | 60 | 1015.1 | |
| 20260905224323 | 66 | 0.0 | 0.0 | 0.00 | 0.00 | 0.00 | 60 | 1015.2 | |
| 20260905223145 | 66 | 0.0 | 0.0 | 0.00 | 0.00 | 0.00 | 59 | 1015.3 | |
| 20260905222209 | 66 | 0.0 | 0.0 | 0.00 | 0.00 | 0.00 | 61 | 1015.3 | |
| 20260905221231 | 65 | 0.0 | 0.0 | 0.00 | 0.00 | 0.00 | 59 | 1015.6 | |
| 20260905220208 | 65 | 0.0 | 0.0 | 0.00 | 0.00 | 0.00 | 59 | 1015.6 | |
| 20260905215238 | 66 | 0.0 | 0.0 | 0.00 | 0.00 | 0.00 | 60 | 1015.6 | |
| 20260905214124 | 66 | 0.0 | 0.0 | 0.00 | 0.00 | 0.00 | 60 | 1015.6 | |
| 20260905213006 | 66 | 0.0 | 0.0 | 0.00 | 0.00 | 0.00 | 60 | 1015.7 | |
| 20260905212553 | 65 | 0.0 | 0.0 | 0.00 | 0.00 | 0.00 | 61 | 1015.6 | |
| 20260905212006 | 65 | 0.0 | 0.0 | 0.00 | 0.00 | 0.00 | 63 | 1015.7 | |
| 20260905211842 | 64 | 0.0 | 0.0 | 0.00 | 0.00 | 0.00 | 63 | 1015.7 | |
| 20260905211647 | 64 | 0.0 | 0.0 | 0.00 | 0.00 | 0.00 | 63 | 1015.8 | |
| 20260905210909 | 64 | 0.0 | 0.0 | 0.00 | 0.00 | 0.00 | 64 | 1015.8 | |
| 20260905205808 | 63 | 0.0 | 0.0 | 0.00 | 0.00 | 0.00 | 63 | 1016.1 | |
| 20260905204634 | 63 | 0.0 | 0.0 | 0.00 | 0.00 | 0.00 | 64 | 1016.2 | |
| 20260905203623 | 61 | 0.0 | 0.0 | 0.00 | 0.00 | 0.00 | 65 | 1016.3 | |
| 20260905202610 | 60 | 0.0 | 0.0 | 0.00 | 0.00 | 0.00 | 67 | 1016.5 | |
| 20260905201541 | 59 | 0.0 | 0.0 | 0.00 | 0.00 | 0.00 | 70 | 1016.5 | |
| 20260905200617 | 59 | 0.0 | 0.0 | 0.00 | 0.00 | 0.00 | 70 | 1016.5 | |
| 20260905195615 | 59 | 0.0 | 0.0 | 0.00 | 0.00 | 0.00 | 72 | 1016.5 | |
| 20260905194600 | 58 | 0.0 | 0.0 | 0.00 | 0.00 | 0.00 | 72 | 1016.6 | |
| 20260905193640 | 58 | 0.0 | 0.0 | 0.00 | 0.00 | 0.00 | 72 | 1016.7 | |
| 20260905192528 | 58 | 0.0 | 0.0 | 0.00 | 0.00 | 0.00 | 73 | 1016.7 | |
| 20260905191459 | 58 | 0.0 | 0.0 | 0.00 | 0.00 | 0.00 | 73 | 1016.7 | |
| 20260905190433 | 58 | 0.0 | 0.0 | 0.00 | 0.00 | 0.00 | 74 | 1016.9 | |
| 20260905185458 | 57 | 0.0 | 0.0 | 0.00 | 0.00 | 0.00 | 74 | 1017.0 | |
| 20260905184528 | 57 | 0.0 | 0.0 | 0.00 | 0.00 | 0.00 | 76 | 1017.1 | |
| 20260905183405 | 56 | 0.0 | 0.0 | 0.00 | 0.00 | 0.00 | 77 | 1017.3 | |
| 20260905182414 | 56 | 0.0 | 0.0 | 0.00 | 0.00 | 0.00 | 80 | 1017.3 | |
| 20260905181348 | 55 | 0.0 | 0.0 | 0.00 | 0.00 | 0.00 | 82 | 1017.4 | |
| 20260905180430 | 55 | 0.0 | 0.0 | 0.00 | 0.00 | 0.00 | 83 | 1017.4 | |
| 20260905175329 | 55 | 0.0 | 0.0 | 0.00 | 0.00 | 0.00 | 83 | 1017.4 | |
| 20260905174359 | 55 | 0.0 | 0.0 | 0.00 | 0.00 | 0.00 | 84 | 1017.4 | |
| 20260905173405 | 55 | 0.0 | 0.0 | 0.00 | 0.00 | 0.00 | 84 | 1017.2 | |
| 20260905171302 | 54 | 0.0 | 0.0 | 0.00 | 0.00 | 0.00 | 84 | 1017.2 | |
| 20260905170148 | 54 | 0.0 | 0.0 | 0.00 | 0.00 | 0.00 | 85 | 1017.1 | |
| 20260905165020 | 54 | 0.0 | 0.0 | 0.00 | 0.00 | 0.00 | 85 | 1017.2 | |
| 20260905164009 | 54 | 0.0 | 0.0 | 0.00 | 0.00 | 0.00 | 85 | 1017.1 | |
| 20260905162923 | 53 | 0.0 | 0.0 | 0.00 | 0.00 | 0.00 | 86 | 1017.1 | |
| 20260905161834 | 52 | 0.0 | 0.0 | 0.00 | 0.00 | 0.00 | 87 | 1017.1 | |
| 20260905160657 | 52 | 0.0 | 0.0 | 0.00 | 0.00 | 0.00 | 88 | 1017.2 | |
| 20260905155619 | 51 | 0.0 | 0.0 | 0.00 | 0.00 | 0.00 | 89 | 1017.1 | |
| 20260905155404 | 51 | 0.0 | 0.0 | 0.00 | 0.00 | 0.00 | 89 | 1017.2 | |
| 20260905154817 | 51 | 0.0 | 0.0 | 0.00 | 0.00 | 0.00 | 89 | 1017.2 | |
| 20260905153853 | 50 | 0.0 | 0.0 | 0.00 | 0.00 | 0.00 | 90 | 1017.2 | |
| 20260905153700 | 50 | 0.0 | 0.0 | 0.00 | 0.00 | 0.00 | 90 | 1017.3 | |
| 20260905152657 | 50 | 0.0 | 0.0 | 0.00 | 0.00 | 0.00 | 91 | 1017.2 | |
| 20260905152634 | 50 | 0.0 | 0.0 | 0.00 | 0.00 | 0.00 | 91 | 1017.2 | |
| 20260905151547 | 50 | 0.0 | 0.0 | 0.00 | 0.00 | 0.00 | 92 | 1017.2 | |
| 20260905150542 | 49 | 0.0 | 0.0 | 0.00 | 0.00 | 0.00 | 92 | 1017.1 | |
| 20260905150513 | 49 | 0.0 | 0.0 | 0.00 | 0.00 | 0.00 | 92 | 1017.0 | |
| 20260905150237 | 49 | 0.0 | 0.0 | 0.00 | 0.00 | 0.00 | 92 | 1017.0 | |
| 20260905145916 | 49 | 0.0 | 0.0 | 0.00 | 0.00 | 0.00 | 92 | 1017.0 | |
| 20260905145356 | 49 | 0.0 | 0.0 | 0.00 | 0.00 | 0.00 | 92 | 1017.0 | |
| 20260905144318 | 49 | 0.0 | 0.0 | 0.00 | 0.00 | 0.00 | 92 | 1016.8 | |
| 20260905143159 | 49 | 0.0 | 0.0 | 0.00 | 0.00 | 0.00 | |||
| 20260905142032 | 49 | 0.0 | 0.0 | 0.00 | 0.02 | 0.00 | 92 | 1016.7 | |
| 20260905140917 | 49 | 0.0 | 0.0 | 0.00 | 0.02 | 0.00 | 92 | 1016.7 | |
| 20260905135831 | 49 | 0.0 | 0.0 | 0.00 | 0.02 | 0.00 | 92 | 1016.6 | |
| 20260905134853 | 49 | 0.0 | 0.0 | 0.00 | 0.02 | 0.00 | 92 | 1016.4 | |
| 20260905133726 | 49 | 0.0 | 0.0 | 0.00 | 0.02 | 0.00 | 92 | 1016.5 | |
| 20260905132618 | 49 | 0.0 | 0.0 | 0.00 | 0.02 | 0.00 | 92 | 1016.6 | |
| 20260905131442 | 49 | 0.0 | 0.0 | 0.00 | 0.02 | 0.00 | 92 | 1016.5 | |
| 20260905130317 | 49 | 0.0 | 0.0 | 0.00 | 0.02 | 0.00 | 93 | 1016.4 | |
| 20260905125337 | 49 | 0.0 | 0.0 | 0.00 | 0.02 | 0.00 | 92 | 1016.4 | |
| 20260905124251 | 49 | 0.0 | 0.0 | 0.00 | 0.02 | 0.00 | 91 | 1016.3 | |
| 20260905123125 | 49 | 0.0 | 0.0 | 0.00 | 0.02 | 0.00 | 91 | 1016.3 | |
| 20260905121959 | 49 | 0.0 | 0.0 | 0.00 | 0.02 | 0.00 | 91 | 1016.3 | |
| 20260905120851 | 49 | 0.0 | 0.0 | 0.00 | 0.02 | 0.00 | 91 | 1016.3 | |
| 20260905115824 | 49 | 0.0 | 0.0 | 0.00 | 0.02 | 0.00 | 90 | 1016.3 | |
| 20260905114705 | 49 | 0.0 | 0.0 | 0.00 | 0.02 | 0.00 | 90 | 1016.2 | |
| 20260905113627 | 49 | 0.0 | 0.0 | 0.00 | 0.02 | 0.00 | 91 | 1016.2 | |
| 20260905112529 | 49 | 0.0 | 0.0 | 0.00 | 0.02 | 0.00 | 91 | 1016.2 | |
| 20260905111517 | 49 | 0.0 | 0.0 | 0.00 | 0.02 | 0.00 | 90 | 1016.2 | |
| 20260905110425 | 49 | 0.0 | 0.0 | 0.00 | 0.02 | 0.00 | 90 | 1016.1 | |
| 20260905105321 | 49 | 0.0 | 0.0 | 0.00 | 0.02 | 0.00 | 90 | 1016.1 | |
| 20260905104342 | 49 | 0.0 | 0.0 | 0.00 | 0.02 | 0.00 | 90 | 1016.1 | |
| 20260905103405 | 49 | 0.0 | 0.0 | 0.00 | 0.02 | 0.00 | 90 | 1016.1 | |
| 20260905102244 | 49 | 0.0 | 0.0 | 0.00 | 0.02 | 0.00 | 89 | 1016.0 | |
| 20260905101116 | 49 | 0.0 | 0.0 | 0.00 | 0.02 | 0.00 | 89 | 1015.9 | |
| 20260905100126 | 49 | 0.0 | 0.0 | 0.00 | 0.02 | 0.00 | 89 | 1015.8 | |
| 20260905095134 | 49 | 0.0 | 0.0 | 0.00 | 0.02 | 0.00 | 89 | 1015.8 | |
| 20260905094115 | 50 | 0.0 | 0.0 | 0.00 | 0.02 | 0.00 | 89 | 1015.8 | |
| 20260905093051 | 50 | 0.0 | 0.0 | 0.00 | 0.02 | 0.00 | 90 | 1015.9 | |
| 20260905092011 | 50 | 0.0 | 0.0 | 0.00 | 0.02 | 0.00 | 90 | 1015.8 | |
| 20260905091003 | 50 | 0.0 | 0.0 | 0.00 | 0.02 | 0.00 | 90 | 1015.8 | |
| 20260905090032 | 50 | 0.0 | 0.0 | 0.00 | 0.02 | 0.00 | 90 | 1015.7 | |
| 20260905084955 | 50 | 0.0 | 0.0 | 0.00 | 0.02 | 0.00 | 90 | 1015.7 | |
| 20260905084017 | 50 | 0.0 | 0.0 | 0.00 | 0.02 | 0.00 | 90 | 1015.6 | |
| 20260905083010 | 50 | 0.0 | 0.0 | 0.00 | 0.02 | 0.00 | 89 | 1015.7 | |
| 20260905082006 | 51 | 0.0 | 0.0 | 0.00 | 0.02 | 0.00 | 89 | 1015.6 | |
| 20260905080956 | 51 | 0.0 | 0.0 | 0.00 | 0.02 | 0.00 | 89 | 1015.5 | |
| 20260905075950 | 51 | 0.0 | 0.0 | 0.00 | 0.02 | 0.00 | 88 | 1015.5 | |
| 20260905074903 | 51 | 0.0 | 0.0 | 0.00 | 0.02 | 0.00 | 88 | 1015.6 | |
| 20260905073840 | 51 | 0.0 | 0.0 | 0.00 | 0.02 | 0.00 | 87 | 1015.5 | |
| 20260905072843 | 51 | 0.0 | 0.0 | 0.00 | 0.02 | 0.00 | 87 | 1015.5 | |
| 20260905071716 | 51 | 0.0 | 0.0 | 0.00 | 0.02 | 0.00 | 87 | 1015.5 | |
| 20260905070632 | 51 | 0.0 | 0.0 | 0.00 | 0.02 | 0.00 | 86 | 1015.4 | |
| 20260905065652 | 52 | 0.0 | 0.0 | 0.00 | 0.02 | 0.00 | 85 | 1015.3 | |
| 20260905064511 | 52 | 0.0 | 0.0 | 0.00 | 0.02 | 0.00 | 85 | 1015.1 | |
| 20260905063502 | 52 | 0.0 | 0.0 | 0.00 | 0.02 | 0.00 | 85 | 1015.0 | |
| 20260905062324 | 53 | 0.0 | 0.0 | 0.00 | 0.02 | 0.00 | 84 | 1014.9 | |
| 20260905061253 | 53 | 0.0 | 0.0 | 0.00 | 0.02 | 0.00 | 84 | 1014.8 | |
| 20260905060323 | 53 | 0.0 | 0.0 | 0.00 | 0.02 | 0.00 | 84 | 1014.7 | |
| 20260905055322 | 53 | 0.0 | 0.0 | 0.00 | 0.03 | 0.00 | 86 | 1014.7 | |
| 20260905054213 | 54 | 0.0 | 0.0 | 0.00 | 0.03 | 0.00 | 78 | 1014.6 | |
| 20260905053228 | 54 | 0.0 | 0.0 | 0.00 | 0.03 | 0.00 | 78 | 1014.4 | |
| 20260905052135 | 54 | 0.0 | 0.0 | 0.00 | 0.03 | 0.00 | 78 | 1014.5 | |
| 20260905051109 | 54 | 0.0 | 0.0 | 0.00 | 0.03 | 0.00 | 78 | 1014.6 | |
| 20260905050017 | 54 | 0.0 | 0.0 | 0.00 | 0.03 | 0.00 | 79 | 1014.6 | |
| 20260905045041 | 54 | 0.0 | 0.0 | 0.00 | 0.03 | 0.00 | 79 | 1014.8 | |
| 20260905043944 | 54 | 0.0 | 0.0 | 0.00 | 0.03 | 0.00 | 80 | 1014.8 | |
| 20260905042811 | 54 | 0.0 | 0.0 | 0.00 | 0.03 | 0.00 | 80 | 1014.7 | |
| 20260905041756 | 54 | 0.0 | 0.0 | 0.00 | 0.03 | 0.00 | 80 | 1014.9 | |
| 20260905040650 | 54 | 0.0 | 0.0 | 0.00 | 0.03 | 0.00 | 82 | 1014.8 | |
| 20260905035630 | 54 | 0.0 | 0.0 | 0.00 | 0.03 | 0.00 | 84 | 1014.8 | |
| 20260905034639 | 55 | 0.0 | 0.0 | 0.00 | 0.03 | 0.00 | 84 | 1014.7 | |
| 20260905033546 | 55 | 0.0 | 0.0 | 0.00 | 0.03 | 0.00 | 83 | 1014.7 | |
| 20260905032551 | 55 | 0.0 | 0.0 | 0.00 | 0.03 | 0.00 | 82 | 1014.7 | |
| 20260905031431 | 55 | 0.0 | 0.0 | 0.00 | 0.03 | 0.00 | 81 | 1014.5 | |
| 20260905030508 | 55 | 0.0 | 0.0 | 0.00 | 0.03 | 0.00 | 81 | 1014.5 | |
| 20260905025356 | 56 | 0.0 | 0.0 | 0.00 | 0.03 | 0.00 | 82 | 1014.4 | |
| 20260905024335 | 56 | 0.0 | 0.0 | 0.00 | 0.03 | 0.00 | 82 | 1014.3 | |
| 20260905023232 | 56 | 0.0 | 0.0 | 0.00 | 0.03 | 0.00 | 80 | 1014.2 | |
| 20260905022313 | 56 | 0.0 | 0.0 | 0.00 | 0.03 | 0.00 | 79 | 1014.0 | |
| 20260905021327 | 56 | 0.0 | 0.0 | 0.00 | 0.03 | 0.00 | 78 | 1014.1 | |
| 20260905020316 | 56 | 0.0 | 0.0 | 0.00 | 0.03 | 0.00 | 79 | 1014.0 | |
| 20260905015243 | 57 | 0.0 | 0.0 | 0.00 | 0.03 | 0.00 | 80 | 1014.0 | |
| 20260905014141 | 57 | 0.0 | 0.0 | 0.00 | 0.03 | 0.00 | 79 | 1014.1 | |
| 20260905013158 | 57 | 0.0 | 0.0 | 0.01 | 0.03 | 0.00 | 78 | 1014.0 | |
| 20260905012159 | 58 | 0.0 | 0.0 | 0.01 | 0.03 | 0.00 | 78 | 1013.9 | |
| 20260905011125 | 58 | 0.0 | 0.0 | 0.01 | 0.03 | 0.00 | 78 | 1013.7 | |
| 20260905010152 | 59 | 0.0 | 0.0 | 0.01 | 0.03 | 0.00 | 81 | 1013.7 | |
| 20260905005144 | 59 | 0.0 | 0.0 | 0.01 | 0.03 | 0.00 | 79 | 1013.6 | |
| 20260905004115 | 60 | 0.0 | 0.0 | 0.01 | 0.03 | 0.00 | 77 | 1013.3 | |
| 20260905003126 | 60 | 0.0 | 0.0 | 0.00 | 0.01 | 0.00 | 75 | 1013.2 |